Flag for Canada Weather past 2 weeks in Kitchener, Ontario, Canada

Now
59 °F

Overcast.


Feels Like: 58 °F
Forecast: N/A
Wind: 7 mph from East

Location: Waterloo Well

Current Time: Oct 1, 2014 at 7:04:13 PM

Latest Report: Oct 1, 2014 at 6:00 PM


Visibility: 9 mi

Pressure: 30.06 "Hg

Humidity: 94%

Dew point: 57 °F

Location of KitchenerLocation

Historic Weather in Kitchener — Graph

°F

Kitchener temperature yesterday

Maximum temperature yesterday: 63 °F (at 2:00 PM)
Minimum temperature yesterday: 52 °F (at 12:00 AM)
Average temperature yesterday: 58 °F

Past Weeks' High & Low Weather Summary

 TemperatureHumidityPressure
High77 °F (Sep 27, 4:00 PM)100% (Sep 17, 12:00 AM)30.50 "Hg (Sep 17, 12:00 AM)
Low36 °F (Sep 19, 2:00 AM)42% (Sep 27, 5:00 PM)29.55 "Hg (Sep 21, 9:00 AM)
Average55 °F83%30.12 "Hg
* Reported Sep 16 6:00 PM — Oct 1 6:00 PM, Kitchener, Weather by CustomWeather, © 2014

Note: Actual official high and low records may vary slightly from our data, if they occured in-between our weather recording intervals... More about our weather records

Advertising

Kitchener weather history for previous 24 hours

 ConditionsComfort  
Time TempWeatherWind HumidityBarometerVisibility
6:00 PM
Oct 1
59 °FOvercast.7 mph94%30.06 "Hg9 mi
5:00 PM61 °FMore clouds than sun.6 mph88%30.06 "Hg9 mi
4:00 PM59 °FMore clouds than sun.6 mph94%30.07 "Hg7 mi
3:00 PM61 °FOvercast.5 mph83%30.08 "Hg9 mi
2:00 PM61 °FOvercast.7 mph83%30.09 "Hg9 mi
1:00 PM59 °FLow clouds.8 mph88%30.10 "Hg9 mi
12:01 PM57 °FFog.9 mph94%30.10 "Hg5 mi
11:00 AM57 °FFog.7 mph94%30.09 "Hg5 mi
10:00 AM57 °FFog.8 mph88%30.09 "Hg3 mi
9:00 AM55 °FFog.9 mph94%30.08 "Hg4 mi
8:00 AM55 °FFog.8 mph94%30.06 "Hg5 mi
7:00 AM55 °FFog.8 mph94%30.05 "Hg4 mi
6:03 AM57 °FFog.8 mph94%30.04 "Hg3 mi
5:00 AM57 °FFog.6 mph94%30.03 "Hg3 mi
4:00 AM57 °FFog.7 mph94%30.02 "Hg6 mi
3:52 AM57 °FFog.7 mph94%30.02 "Hg6 mi
3:00 AM59 °FFog.10 mph94%30.03 "Hg3 mi
2:00 AM59 °FFog.9 mph94%30.02 "Hg3 mi
1:49 AM59 °FFog.8 mph94%30.01 "Hg3 mi
1:00 AM59 °FFog.8 mph94%30.01 "Hg2 mi
12:55 AM59 °FFog.7 mph94%30.01 "Hg2 mi
12:03 AM59 °FFog.2 mph94%30.01 "Hg1 mi
11:00 PM
Sep 30
59 °FFog.5 mph94%30.00 "Hg1 mi
10:52 PM57 °FFog.2 mph100%30.01 "Hg1 mi
10:00 PM57 °FFog.No wind94%29.99 "Hg1 mi
9:00 PM55 °FFog.No wind100%29.98 "Hg0 mi
8:00 PM57 °FFog.3 mph94%29.96 "Hg1 mi
7:04 PM59 °FFog.No wind94%29.95 "Hg2 mi
7:00 PM59 °FFog.2 mph94%29.95 "Hg6 mi
Weather by CustomWeather, © 2014

See weather overviewHow to use our weather pages